Location: Kuppenheim
(48.8299°N, 8.2568°E)
Time: 11:04:35
(UTC+00:00)

Cosmos 1408 - Pass Details

Date: 20 June 2021
Orbit: 466 x 492 km, 82.6° (Epoch: 27 July)

Event Time Altitude Azimuth Distance (km) Brightness Sun altitude
Exits shadow 00:18:59 40° 203° (SSW) 737 2.9 -16.9°
Maximum altitude 00:20:11 75° 279° (W) 513 2.6 -16.8°
Drops below altitude 10° 00:23:55 10° 7° (N) 1,697 6.6 -16.7°
Sets 00:26:02 0° 9° (N) 2,586 8.1 -16.6°
